{"data":{"norad_id":68172,"epoch":"2026-05-25T02:00:24.977088Z","epoch_age_seconds":71281,"freshness":"FRESH","line1":"1 68172U 26050F   26145.08362242  .00027419  00000+0  71093-3 0  9997","line2":"2 68172  53.1594 271.6116 0001207  74.7781 285.3357 15.38837125 12381","mean_motion":15.38837125,"eccentricity":0.0001207,"inclination_deg":53.1594,"raan_deg":271.6116,"arg_perigee_deg":74.7781,"mean_anomaly_deg":285.3357,"bstar":0.00071093,"rev_number":1238,"period_min":93.577154892205,"perigee_km":448.72276738057,"apogee_km":450.3709702665,"semimajor_km":6827.6838688235,"source":"CELESTRAK","updated_at":"2026-05-25T13:38:21.853247Z"}}